[[{"header":{"parameterUnit":"m.s-1","parameterCategory":2,"la1":30.2991,"la2":30.254,"lo1":-89.0895,"lo2":-89.0444,"dy":0.0017,"dx":0.0017,"nx":28,"ny":28,"refTime":"2025-05-20T09:00:00:Z","depth":"0","parameterNumber":2,"parameterNumberName":"U-component_of_CURRENTS"},"data":[0,0,0,0,0,0,0,0,0,0,0,0,0,0,0,0,0,0,0,0,0,0,0,0,0,0,0,0,0,0,0,0,0,0,0,0,0,0,0,0,0,0,0,0,0,0,0,0,0,0,0,0,0,0,0,0,0,0,0.2835,0.2836,0,0.2829,0.2828,0.2827,0.2746,0.2745,0.2744,0.2743,0.2703,0.2703,0.2703,0,0,0,0,0,0,0,0,0,0,0,0,0,0.2777,0.2777,0.2835,0.2836,0.2837,0.2829,0.2828,0.2827,0.2746,0.2745,0.2744,0.2742,0.2703,0.2703,0.2703,0,0,0,0,0,0,0,0,0,0,0,0,0,0.278,0.2777,0.2835,0.2802,0.28,0.2829,0.2828,0.2827,0.2747,0.2745,0.2743,0.2742,0.2703,0.2703,0.2703,0.2739,0,0,0.2703,0.2703,0,0,0,0,0,0,0,0,0.278,0.2781,0.2806,0.2805,0.2802,0.2795,0.2794,0.2799,0.2747,0.2757,0.2743,0.2741,0.2738,0.2735,0.2725,0.2737,0.2736,0.2703,0.2703,0.2703,0.2703,0,0,0,0,0,0,0,0.278,0.2781,0.2823,0.2808,0.2805,0.2789,0.2786,0.2794,0.275,0.2756,0.2752,0.2767,0.2735,0.2725,0.2723,0.2735,0.2703,0.2703,0.2703,0.2703,0.2797,0.2799,0,0,0,0,0,0,0.2802,0.2781,0.2823,0.2824,0.2797,0.2792,0.2789,0.2791,0.275,0.2745,0.2769,0.2764,0.2726,0.2723,0.2722,0.2788,0.2703,0.2703,0.2703,0.2794,0.2797,0.28,0,0,0,0,0,0,0.2801,0.2805,0.2824,0.281,0.2813,0.2796,0.2799,0.2792,0.2779,0.2762,0.2754,0.2763,0.2724,0.2722,0.2729,0.2785,0.2703,0.2703,0.2792,0.2795,0.2799,0.2905,0,0,0,0,0,0,0.2799,0.2804,0.2824,0.2812,0.2815,0.2859,0.2802,0.2794,0.2796,0.2788,0.2755,0.2749,0.2723,0.2729,0.2729,0.2783,0.2703,0.2788,0.2793,0.2798,0.2898,0.2911,0.2923,0,0,0,0,0,0.2796,0.2827,0.2824,0.2831,0.2838,0.2863,0.2862,0.2837,0.2797,0.2811,0.2776,0.275,0.2759,0.2731,0.273,0.2786,0.2786,0.2792,0.2797,0.2892,0.2909,0.2923,0,0,0,0,0,0,0.2829,0.2822,0.2818,0.2851,0.2868,0.2852,0.2874,0.2846,0.2827,0.2818,0.2771,0.2765,0.2796,0.2778,0.2748,0.2828,0.2774,0.2779,0.2846,0.2861,0.2874,0.2932,0.2703,0,0,0,0,0,0.2847,0.2852,0.2863,0.2894,0.2906,0.2889,0.2897,0.2883,0.2867,0.2855,0.2826,0.2812,0.2823,0.2827,0.2829,0.2869,0.287,0.2909,0.2922,0.2932,0.2981,0.3029,0.305,0.2818,0.2818,0.2818,0,0,0.2881,0.2871,0.2884,0.29,0.2906,0.2948,0.2886,0.2913,0.2938,0.2859,0.2873,0.2852,0.2842,0.2884,0.2899,0.2873,0.2992,0.2939,0.2948,0.2993,0.3037,0.306,0.308,0.2822,0.2821,0.2821,0,0,0.2935,0.2935,0.2958,0.298,0.3002,0.2998,0.301,0.3001,0.2987,0.3011,0.2962,0.2987,0.2977,0.2998,0.3005,0.3096,0.3053,0.3079,0.3194,0.3239,0.3259,0.3276,0.3272,0.3289,0.3089,0.3089,0.3089,0,0.2972,0.2997,0.2978,0.3016,0.3044,0.3025,0.3075,0.308,0.307,0.3072,0.3035,0.306,0.3053,0.3124,0.316,0.3132,0.3119,0.3132,0.3256,0.3274,0.329,0.3282,0.33,0.3095,0.3094,0.3093,0.3093,0,0.3048,0.3078,0.3102,0.3132,0.3165,0.3207,0.3223,0.3234,0.3211,0.3212,0.3256,0.3249,0.3267,0.3274,0.3251,0.3363,0.33,0.3261,0.3218,0.332,0.3304,0.332,0.3103,0.3101,0.3099,0.3098,0,0,0.3089,0.3138,0.3151,0.3161,0.3224,0.3238,0.331,0.3349,0.336,0.339,0.3423,0.3488,0.3471,0.3483,0.3454,0.3514,0.3612,0.3447,0.3447,0.3445,0.3669,0.3527,0.353,0.3575,0.3579,0.3583,0.3598,0,0.3148,0.3217,0.3237,0.3308,0.3339,0.3358,0.3403,0.3442,0.3456,0.3482,0.3531,0.3553,0.3551,0.3546,0.3624,0.3606,0.3664,0.3609,0.3572,0.3572,0.3435,0.3549,0.3437,0.3434,0.3613,0.3616,0.3618,0,0.3208,0.3233,0.3307,0.3334,0.3351,0.3392,0.343,0.3473,0.3542,0.3552,0.3633,0.3638,0.3757,0.3714,0.3819,0.377,0.3758,0.3749,0.3747,0.3604,0.3462,0.3369,0.3456,0.3447,0.3642,0.364,0.3638,0,0.3189,0.3271,0.3307,0.3333,0.3382,0.3398,0.3429,0.3491,0.3509,0.3602,0.3623,0.3747,0.3778,0.3845,0.3857,0.3835,0.3931,0.388,0.3747,0.3733,0.3633,0.3603,0.3717,0.3974,0.3974,0.3974,0.3974,0,0.3206,0.3236,0.3289,0.3298,0.3323,0.3372,0.3396,0.3441,0.3511,0.3548,0.3649,0.3697,0.3814,0.3869,0.3891,0.387,0.3961,0.3811,0.3756,0.3658,0.3632,0.3611,0.3603,0.3974,0.3974,0.3974,0.3974,0,0.3161,0.3213,0.3237,0.3286,0.3301,0.3313,0.3367,0.3382,0.3455,0.3514,0.3549,0.3676,0.3738,0.3809,0.3886,0.3867,0.3783,0.3836,0.369,0.3618,0.346,0.346,0.331,0.3237,0.3708,0.3705,0.3703,0,0.3151,0.3154,0.3199,0.3211,0.3227,0.3257,0.3272,0.3349,0.3378,0.3489,0.3515,0.3599,0.3635,0.3689,0.3684,0.3683,0.3646,0.3565,0.3531,0.3481,0.3442,0.3276,0.3216,0.3427,0.3423,0.3419,0.3416,0,0.3098,0.3103,0.3102,0.3143,0.3161,0.3174,0.3212,0.3224,0.3311,0.3344,0.34,0.3438,0.3485,0.3453,0.344,0.343,0.3424,0.3481,0.3505,0.3316,0.3074,0.2964,0.3356,0.3382,0.3386,0.3388,0.339,0.3391,0.3045,0.3028,0.3032,0.306,0.3075,0.3069,0.3029,0.3074,0.3078,0.3082,0.3218,0.3193,0.3297,0.3253,0.322,0.3152,0.3119,0.3122,0.3147,0.2998,0.2875,0.3163,0.307,0.3072,0.3073,0.3074,0.3075,0,0.2953,0.2946,0.2963,0.2957,0.2914,0.2969,0.2956,0.2881,0.2819,0.2889,0.2884,0.2934,0.2917,0.2986,0.2984,0.2894,0.276,0.286,0.2694,0.2672,0.3023,0.2964,0.2754,0.2754,0.2754,0.2754,0.2754,0.2754,0.2902,0.2864,0.2873,0.2798,0.2777,0.2662,0.2614,0.2533,0.2529,0.2462,0.2464,0.2523,0.2774,0.2911,0.2877,0.28,0.2658,0.2478,0.2516,0.2892,0.2921,0.2949,0.2897,0.2676,0.2676,0.2053,0.2049,0.2046]},{"header":{"parameterUnit":"m.s-1","parameterCategory":2,"la1":30.2991,"la2":30.254,"lo1":-89.0895,"lo2":-89.0444,"dy":0.0017,"dx":0.0017,"nx":28,"ny":28,"refTime":"2025-05-20T09:00:00:Z","depth":"0","parameterNumber":3,"parameterNumberName":"V-component_of_CURRENTS"},"data":[0,0,0,0,0,0,0,0,0,0,0,0,0,0,0,0,0,0,0,0,0,0,0,0,0,0,0,0,0,0,0,0,0,0,0,0,0,0,0,0,0,0,0,0,0,0,0,0,0,0,0,0,0,0,0,0,0,0,0.0394,0.0395,0,0.0396,0.0396,0.0396,0.0383,0.0383,0.0383,0.0383,0.0344,0.0344,0.0343,0,0,0,0,0,0,0,0,0,0,0,0,0,0.0306,0.0308,0.0394,0.0395,0.0395,0.0396,0.0396,0.0396,0.0383,0.0383,0.0383,0.0383,0.0345,0.0344,0.0343,0,0,0,0,0,0,0,0,0,0,0,0,0,0.0328,0.0308,0.0394,0.039,0.039,0.0396,0.0396,0.0396,0.0383,0.0383,0.0383,0.0383,0.0345,0.0344,0.0343,0.034,0,0,0.0339,0.0338,0,0,0,0,0,0,0,0,0.0327,0.0331,0.039,0.039,0.039,0.0391,0.0351,0.0376,0.0384,0.0384,0.0383,0.0383,0.0358,0.0355,0.0354,0.0339,0.0337,0.0339,0.0338,0.0337,0.0337,0,0,0,0,0,0,0,0.0326,0.0331,0.0393,0.0391,0.0391,0.0363,0.0366,0.0355,0.037,0.0384,0.0383,0.0387,0.0357,0.0356,0.0353,0.0336,0.0339,0.0337,0.0337,0.0336,0.0344,0.0345,0,0,0,0,0,0,0.0334,0.033,0.0393,0.0393,0.0359,0.0365,0.0369,0.0389,0.0371,0.0369,0.0387,0.0386,0.0358,0.0355,0.0352,0.0353,0.0337,0.0336,0.0335,0.0343,0.0344,0.0345,0,0,0,0,0,0,0.0332,0.034,0.0393,0.0362,0.0367,0.0368,0.0391,0.039,0.0386,0.0374,0.0371,0.0384,0.0358,0.0354,0.0351,0.0351,0.0336,0.0334,0.0342,0.0343,0.0345,0.0351,0,0,0,0,0,0,0.033,0.034,0.0352,0.0363,0.0369,0.0392,0.0391,0.039,0.039,0.0389,0.0371,0.0367,0.0357,0.0353,0.0349,0.0349,0.0333,0.0341,0.0343,0.0344,0.035,0.0353,0.0355,0,0,0,0,0,0.0327,0.0353,0.0354,0.0361,0.0389,0.0393,0.0392,0.039,0.039,0.0386,0.0385,0.0368,0.0362,0.0352,0.0348,0.0347,0.034,0.0342,0.0344,0.0348,0.0352,0.0355,0,0,0,0,0,0,0.0333,0.0355,0.0355,0.0391,0.0387,0.0391,0.0395,0.039,0.0387,0.0388,0.0375,0.0372,0.0372,0.0364,0.0354,0.0359,0.035,0.0352,0.0355,0.0358,0.0361,0.039,0.0332,0,0,0,0,0,0.0339,0.0352,0.0367,0.0388,0.0395,0.0393,0.0393,0.039,0.0391,0.0389,0.0377,0.0375,0.0379,0.0371,0.0371,0.0366,0.0351,0.0367,0.037,0.0372,0.0395,0.0377,0.038,0.0353,0.0353,0.0352,0,0,0.0346,0.0358,0.0367,0.0387,0.039,0.0401,0.0392,0.0397,0.0401,0.0385,0.0388,0.0382,0.0383,0.0384,0.0383,0.0374,0.0365,0.0375,0.0376,0.0399,0.038,0.0382,0.0385,0.0354,0.0354,0.0354,0,0,0.0368,0.0381,0.0402,0.04,0.0404,0.0403,0.0405,0.0407,0.0405,0.0404,0.0404,0.0405,0.0394,0.04,0.0402,0.0421,0.0384,0.0414,0.0442,0.0424,0.0425,0.0427,0.0377,0.0375,0.041,0.041,0.041,0,0.037,0.041,0.0405,0.042,0.043,0.0408,0.0433,0.0423,0.0417,0.0434,0.0407,0.0429,0.0408,0.0439,0.044,0.0426,0.04,0.0423,0.0425,0.0427,0.0428,0.0377,0.0374,0.0411,0.0411,0.0411,0.0411,0,0.0419,0.0434,0.0445,0.046,0.0464,0.0476,0.0471,0.0471,0.0463,0.0462,0.0483,0.0461,0.0485,0.0464,0.0451,0.0464,0.0435,0.043,0.0412,0.0431,0.0376,0.0373,0.0412,0.0412,0.0411,0.0411,0,0,0.0459,0.0478,0.0478,0.0495,0.049,0.0505,0.0514,0.0537,0.0575,0.0536,0.0587,0.0559,0.0556,0.0562,0.0541,0.051,0.0466,0.0472,0.047,0.0414,0.0399,0.04,0.0395,0.0454,0.0455,0.0455,0.0343,0,0.0495,0.0538,0.0539,0.057,0.0595,0.0583,0.0605,0.0614,0.062,0.0654,0.0627,0.0659,0.059,0.0611,0.0567,0.0518,0.0464,0.0496,0.0399,0.0396,0.0387,0.0395,0.0417,0.0323,0.0339,0.0338,0.0338,0,0.055,0.0566,0.0615,0.0646,0.0663,0.0677,0.0736,0.0755,0.0783,0.0795,0.0808,0.0792,0.0768,0.0702,0.0594,0.0616,0.0511,0.0441,0.0435,0.0442,0.0393,0.0315,0.0316,0.0213,0.0332,0.0333,0.0333,0,0.0596,0.0624,0.067,0.0675,0.0705,0.0736,0.0763,0.0802,0.0859,0.0898,0.0946,0.0904,0.0907,0.078,0.0632,0.0612,0.0498,0.0454,0.0344,0.0341,0.0349,0.0348,0.0241,0.0362,0.0362,0.0362,0.0363,0,0.064,0.0667,0.0693,0.0714,0.0782,0.0792,0.0886,0.0911,0.0986,0.1081,0.1031,0.109,0.0927,0.0846,0.0676,0.0513,0.0527,0.036,0.0326,0.0349,0.0349,0.0253,0.0199,0.0358,0.0359,0.036,0.0361,0,0.067,0.0686,0.0737,0.0782,0.0804,0.0856,0.0959,0.1044,0.1094,0.122,0.1242,0.1228,0.1125,0.0939,0.0742,0.0592,0.0364,0.035,0.0376,0.0348,0.0158,0.0105,-0.0013,-0.0056,0.0211,0.0211,0.0211,0,0.0682,0.0714,0.0788,0.0834,0.0853,0.0934,0.1014,0.1089,0.1196,0.1313,0.1391,0.1334,0.1318,0.1027,0.0751,0.0464,0.0343,0.0299,0.0272,0.0164,0.0078,0.0041,0.0011,0.0256,0.0256,0.0256,0.0256,0,0.0699,0.0736,0.0784,0.0888,0.0968,0.108,0.1198,0.1297,0.1419,0.1517,0.1628,0.162,0.1362,0.1113,0.074,0.0533,0.0258,0.0291,0.018,0.0118,0.0071,0.0009,0.0285,0.0256,0.0256,0.0256,0.0256,0.0256,0.0714,0.0758,0.0845,0.0945,0.1057,0.1224,0.1334,0.1477,0.1645,0.1811,0.1788,0.181,0.1473,0.0974,0.0676,0.0232,0.023,0.0105,0.0046,0.0015,-0.0001,0.0272,0.0215,0.0215,0.0215,0.0215,0.0215,0,0.0737,0.0804,0.0901,0.1044,0.1193,0.1249,0.1465,0.1595,0.1793,0.1924,0.1994,0.1884,0.1432,0.0983,0.0388,0.0066,-0.0061,-0.0098,-0.0151,-0.0175,0.0063,0.0094,0.0011,0.0011,0.0011,0.0011,0.0011,0.0011,0.0752,0.0848,0.091,0.1133,0.1255,0.1467,0.1598,0.1784,0.1925,0.2105,0.2163,0.2184,0.1935,0.078,0.0047,-0.013,-0.0319,-0.0375,-0.0468,-0.0313,-0.0298,-0.0285,-0.0269,-0.0427,-0.0427,-0.0663,-0.0666,-0.0668]}],[{"header":{"parameterUnit":"m.s-1","parameterCategory":2,"la1":30.2991,"la2":30.254,"lo1":-89.0895,"lo2":-89.0444,"dy":0.0017,"dx":0.0017,"nx":28,"ny":28,"refTime":"2025-05-20T09:00:00:Z","depth":"2","parameterNumber":2,"parameterNumberName":"U-component_of_CURRENTS"},"data":[0,0,0,0,0,0,0,0,0,0,0,0,0,0,0,0,0,0,0,0,0,0,0,0,0,0,0,0,0,0,0,0,0,0,0,0,0,0,0,0,0,0,0,0,0,0,0,0,0,0,0,0,0,0,0,0,0,0,0.2634,0.2634,0,0.2618,0.2617,0.2616,0.2559,0.2558,0.2558,0.2558,0.2545,0.2545,0.2545,0,0,0,0,0,0,0,0,0,0,0,0,0,0.2606,0.2605,0.2634,0.2634,0.2635,0.2618,0.2617,0.2615,0.2559,0.2558,0.2558,0.2558,0.2545,0.2545,0.2545,0,0,0,0,0,0,0,0,0,0,0,0,0,0.2595,0.2605,0.2633,0.2614,0.2613,0.2618,0.2617,0.2615,0.2559,0.2558,0.2558,0.2558,0.2545,0.2545,0.2545,0.255,0,0,0.2544,0.2544,0,0,0,0,0,0,0,0,0.2596,0.2595,0.2616,0.2615,0.2614,0.26,0.2603,0.2597,0.2559,0.2567,0.2558,0.2558,0.2572,0.2569,0.255,0.2549,0.2549,0.2544,0.2544,0.2544,0.2544,0,0,0,0,0,0,0,0.2597,0.2595,0.2615,0.2617,0.2616,0.2604,0.26,0.26,0.2562,0.2566,0.2565,0.2582,0.257,0.2551,0.255,0.2549,0.2544,0.2544,0.2544,0.2544,0.2623,0.2625,0,0,0,0,0,0,0.2623,0.2596,0.2616,0.2616,0.2617,0.2605,0.2601,0.2595,0.2562,0.256,0.2582,0.258,0.2551,0.255,0.2549,0.2631,0.2544,0.2544,0.2544,0.2621,0.2624,0.2626,0,0,0,0,0,0,0.2622,0.2624,0.2617,0.2616,0.2616,0.2607,0.26,0.2596,0.2586,0.2577,0.2572,0.2581,0.2551,0.255,0.256,0.2628,0.2544,0.2543,0.2618,0.2622,0.2625,0.2746,0,0,0,0,0,0,0.2621,0.2623,0.2637,0.2618,0.2618,0.2643,0.2602,0.2596,0.2603,0.2599,0.2575,0.2572,0.255,0.256,0.256,0.2626,0.2543,0.2616,0.262,0.2624,0.274,0.2753,0.2765,0,0,0,0,0,0.2619,0.2642,0.2636,0.2641,0.2632,0.2645,0.2643,0.2628,0.2604,0.2613,0.2589,0.2573,0.2588,0.2561,0.256,0.2628,0.2614,0.2619,0.2624,0.2734,0.2751,0.2765,0,0,0,0,0,0,0.2666,0.2639,0.2632,0.2654,0.2662,0.2641,0.2666,0.2638,0.2622,0.2628,0.2586,0.2583,0.2619,0.2603,0.2574,0.2664,0.2605,0.261,0.269,0.2705,0.2718,0.2788,0.2543,0,0,0,0,0,0.2679,0.267,0.2666,0.2691,0.2702,0.2682,0.2688,0.2678,0.2665,0.2656,0.2636,0.263,0.2638,0.2652,0.2649,0.2693,0.2692,0.2741,0.2754,0.2765,0.2823,0.2867,0.289,0.2643,0.2643,0.2643,0,0,0.2719,0.2698,0.2704,0.2699,0.2705,0.2747,0.2682,0.2712,0.2745,0.2662,0.2697,0.2668,0.2655,0.2702,0.2721,0.27,0.2825,0.2772,0.2782,0.2834,0.2875,0.2899,0.292,0.2646,0.2646,0.2645,0,0,0.2776,0.2768,0.2776,0.2802,0.282,0.2809,0.2823,0.2812,0.2806,0.2833,0.2786,0.281,0.2803,0.2826,0.2832,0.2921,0.2881,0.2905,0.3044,0.3085,0.3106,0.3125,0.3114,0.3132,0.2925,0.2925,0.2925,0,0.2819,0.2831,0.2794,0.2834,0.2873,0.2845,0.2899,0.2905,0.2896,0.2901,0.2873,0.2894,0.2887,0.2958,0.2998,0.2961,0.2943,0.2981,0.3104,0.3123,0.3141,0.3125,0.3143,0.2932,0.2931,0.293,0.293,0,0.2885,0.2925,0.2952,0.2976,0.3009,0.3062,0.3077,0.3091,0.3077,0.3075,0.3121,0.3108,0.3125,0.313,0.3102,0.3218,0.3148,0.3102,0.3068,0.3173,0.3149,0.3165,0.2941,0.2938,0.2937,0.2935,0,0,0.2905,0.297,0.2997,0.3017,0.3092,0.3104,0.3191,0.3223,0.3242,0.3279,0.3319,0.338,0.3356,0.3367,0.3327,0.3393,0.3491,0.3318,0.3317,0.3315,0.354,0.3361,0.3359,0.3449,0.3454,0.3457,0.3458,0,0.2967,0.3046,0.3077,0.3179,0.3213,0.3249,0.3302,0.3342,0.3356,0.3388,0.3433,0.3451,0.3448,0.3438,0.3523,0.3485,0.3546,0.3494,0.3435,0.3434,0.3269,0.3378,0.3139,0.311,0.3473,0.3476,0.3478,0,0.3023,0.3052,0.3147,0.3209,0.3231,0.3291,0.3342,0.339,0.346,0.3471,0.3555,0.3551,0.3673,0.3626,0.3723,0.3676,0.3652,0.3632,0.3629,0.3449,0.3288,0.3072,0.3124,0.3504,0.3502,0.35,0.3498,0,0.2981,0.3106,0.3156,0.3201,0.327,0.3306,0.3346,0.3411,0.343,0.3525,0.3544,0.3671,0.3696,0.3761,0.3753,0.3736,0.3813,0.3763,0.3586,0.3569,0.3356,0.3313,0.3853,0.3853,0.3853,0.3853,0.3853,0,0.3001,0.3062,0.3138,0.3155,0.3208,0.3272,0.3312,0.3368,0.344,0.3469,0.3575,0.3613,0.3734,0.3774,0.3789,0.3735,0.3843,0.3655,0.3586,0.3381,0.3343,0.3681,0.3661,0.3853,0.3853,0.3853,0.3853,0,0.2962,0.3029,0.3074,0.3146,0.3175,0.3211,0.3293,0.3309,0.3382,0.3435,0.3468,0.3586,0.363,0.3696,0.3757,0.3721,0.3711,0.365,0.3377,0.3278,0.3432,0.3419,0.3491,0.3485,0.348,0.3476,0.3473,0,0.2968,0.297,0.3034,0.3066,0.3108,0.3166,0.319,0.3276,0.3301,0.3396,0.3415,0.3482,0.3482,0.35,0.3469,0.3442,0.3561,0.3184,0.3142,0.3484,0.341,0.3404,0.3397,0.2889,0.2881,0.2875,0.287,0,0.2922,0.2927,0.2937,0.3003,0.3051,0.3083,0.3136,0.3141,0.3221,0.3222,0.3241,0.3245,0.3258,0.3122,0.3073,0.3036,0.3183,0.3046,0.3506,0.3003,0.2913,0.2841,0.2855,0.2813,0.2818,0.2822,0.2826,0.2828,0.2882,0.2885,0.2877,0.2956,0.2986,0.298,0.2939,0.2972,0.294,0.2889,0.301,0.2896,0.2926,0.2706,0.2616,0.2563,0.278,0.2697,0.272,0.2749,0.2665,0.257,0.2387,0.239,0.2393,0.2395,0.2397,0,0.2781,0.2797,0.2845,0.2873,0.2824,0.2893,0.2866,0.2753,0.2632,0.2644,0.2584,0.2326,0.2212,0.2249,0.2074,0.2049,0.2059,0.1979,0.2008,0.2066,0.2118,0.2004,0.155,0.1547,0.1544,0.1542,0,0,0.2729,0.2713,0.2749,0.2693,0.269,0.2561,0.2495,0.2348,0.2287,0.2086,0.1994,0.2107,0.2184,0.1844,0.1798,0.1654,0.1846,0.158,0.2266,0.2361,0.2409,0.2542,0.2433,0,0,0,0,0]},{"header":{"parameterUnit":"m.s-1","parameterCategory":2,"la1":30.2991,"la2":30.254,"lo1":-89.0895,"lo2":-89.0444,"dy":0.0017,"dx":0.0017,"nx":28,"ny":28,"refTime":"2025-05-20T09:00:00:Z","depth":"2","parameterNumber":3,"parameterNumberName":"V-component_of_CURRENTS"},"data":[0,0,0,0,0,0,0,0,0,0,0,0,0,0,0,0,0,0,0,0,0,0,0,0,0,0,0,0,0,0,0,0,0,0,0,0,0,0,0,0,0,0,0,0,0,0,0,0,0,0,0,0,0,0,0,0,0,0,0.0295,0.0295,0,0.0285,0.0285,0.0284,0.0277,0.0277,0.0277,0.0277,0.0249,0.0248,0.0247,0,0,0,0,0,0,0,0,0,0,0,0,0,0.0213,0.0215,0.0295,0.0295,0.0295,0.0285,0.0285,0.0284,0.0277,0.0277,0.0277,0.0278,0.0249,0.0248,0.0247,0,0,0,0,0,0,0,0,0,0,0,0,0,0.0228,0.0215,0.0295,0.0292,0.0292,0.0285,0.0285,0.0284,0.0277,0.0277,0.0277,0.0278,0.025,0.0248,0.0247,0.0232,0,0,0.0243,0.0242,0,0,0,0,0,0,0,0,0.0227,0.023,0.0293,0.0293,0.0292,0.0285,0.0245,0.0267,0.0277,0.028,0.0277,0.0278,0.0261,0.0259,0.0252,0.0231,0.023,0.0243,0.0242,0.0241,0.0241,0,0,0,0,0,0,0,0.0226,0.023,0.0288,0.0293,0.0293,0.026,0.0263,0.0249,0.0266,0.0279,0.028,0.0283,0.0261,0.0254,0.0252,0.0229,0.0243,0.0241,0.0241,0.024,0.0235,0.0235,0,0,0,0,0,0,0.0238,0.023,0.0288,0.0288,0.0263,0.0261,0.0265,0.0285,0.0267,0.0265,0.0283,0.0283,0.0256,0.0253,0.0251,0.0257,0.0241,0.024,0.0239,0.0234,0.0235,0.0236,0,0,0,0,0,0,0.0237,0.0244,0.0289,0.026,0.0263,0.0264,0.0285,0.0284,0.0281,0.027,0.0268,0.0282,0.0256,0.0253,0.0249,0.0255,0.0239,0.0238,0.0233,0.0234,0.0235,0.0255,0,0,0,0,0,0,0.0235,0.0244,0.0256,0.0261,0.0266,0.0284,0.0285,0.0284,0.0284,0.0284,0.0268,0.0266,0.0256,0.0252,0.0248,0.0253,0.0237,0.0232,0.0234,0.0235,0.0253,0.0256,0.0259,0,0,0,0,0,0.0232,0.0259,0.0257,0.0264,0.0286,0.0284,0.0283,0.0281,0.0284,0.0279,0.0278,0.0266,0.0258,0.0251,0.0246,0.0251,0.0232,0.0233,0.0235,0.0252,0.0256,0.0259,0,0,0,0,0,0,0.0243,0.0261,0.0259,0.0294,0.0286,0.0284,0.0289,0.0282,0.0277,0.0282,0.0269,0.0266,0.0268,0.0258,0.0251,0.0256,0.0245,0.0245,0.0259,0.0263,0.0265,0.03,0.0236,0,0,0,0,0,0.0248,0.026,0.027,0.029,0.0296,0.0289,0.0288,0.0285,0.0284,0.0282,0.0272,0.027,0.027,0.0266,0.0261,0.0257,0.024,0.026,0.0263,0.0266,0.0292,0.0273,0.0276,0.0241,0.0241,0.0241,0,0,0.0257,0.0266,0.0274,0.0289,0.029,0.0301,0.0289,0.0294,0.03,0.028,0.0287,0.0276,0.0272,0.0274,0.0273,0.0266,0.026,0.0268,0.027,0.0296,0.0275,0.0278,0.0281,0.0242,0.0242,0.0242,0,0,0.0279,0.0293,0.031,0.0309,0.0311,0.0307,0.031,0.0309,0.0309,0.0308,0.0304,0.0303,0.029,0.0294,0.0295,0.0311,0.0277,0.0304,0.0342,0.0322,0.0325,0.0328,0.0276,0.0274,0.0303,0.0304,0.0304,0,0.0283,0.032,0.0311,0.0328,0.034,0.0315,0.0341,0.033,0.0323,0.034,0.0316,0.033,0.0307,0.0336,0.0337,0.0318,0.0291,0.0325,0.0326,0.0328,0.033,0.0277,0.0274,0.0305,0.0305,0.0304,0.0304,0,0.0327,0.0346,0.0359,0.0373,0.0378,0.0393,0.0389,0.039,0.0383,0.0381,0.0402,0.0375,0.0395,0.0372,0.0356,0.037,0.0338,0.0329,0.0315,0.0335,0.0277,0.0274,0.0306,0.0306,0.0306,0.0305,0,0,0.0356,0.0385,0.0388,0.041,0.041,0.0426,0.0439,0.0461,0.0502,0.0465,0.0518,0.0485,0.048,0.0482,0.0456,0.0427,0.0386,0.0385,0.0383,0.0331,0.0317,0.0303,0.0298,0.0372,0.0373,0.0373,0.0258,0,0.0391,0.0439,0.0446,0.0488,0.0515,0.0511,0.0536,0.0547,0.0553,0.0588,0.056,0.0589,0.0518,0.0536,0.0495,0.0437,0.0386,0.0418,0.0311,0.0308,0.0291,0.0298,0.0295,0.0195,0.0254,0.0254,0.0253,0,0.0442,0.046,0.0519,0.0566,0.0585,0.0607,0.0672,0.0694,0.0723,0.0736,0.0749,0.0729,0.0705,0.0636,0.0525,0.0548,0.0438,0.0365,0.0358,0.0348,0.0291,0.0192,0.0186,0.0248,0.0248,0.0249,0.0249,0,0.0479,0.0522,0.0576,0.0588,0.063,0.0671,0.0701,0.0743,0.08,0.0839,0.0887,0.0845,0.0844,0.0718,0.056,0.0543,0.0422,0.0379,0.0253,0.0249,0.0232,0.0227,0.0287,0.0287,0.0287,0.0287,0.0288,0,0.0526,0.0564,0.06,0.0628,0.0706,0.0723,0.0825,0.0854,0.0929,0.1022,0.0973,0.1026,0.0865,0.0777,0.0606,0.043,0.0451,0.0271,0.0232,0.0235,0.0232,0.0279,0.028,0.0283,0.0284,0.0285,0.0285,0,0.0563,0.0586,0.0646,0.0701,0.0727,0.0787,0.0901,0.0986,0.1037,0.1159,0.118,0.1161,0.1047,0.0861,0.0658,0.0505,0.0329,0.0249,0.025,0.0215,0.0145,0.0149,0.0101,0.01,0.0099,0.0098,0.0097,0,0.0586,0.062,0.07,0.0751,0.0781,0.087,0.0952,0.1032,0.1137,0.1245,0.1319,0.1251,0.121,0.0907,0.0631,0.0337,0.0307,0.015,0.0125,0.0167,0.0133,0.0137,0.0142,0.008,0.0079,0.0079,0.0078,0,0.0612,0.0649,0.0702,0.081,0.0899,0.1016,0.1138,0.1235,0.1353,0.1428,0.1516,0.1482,0.1217,0.0932,0.0554,0.0354,0.0203,0.0128,0.0183,0.0145,0.0143,0.0111,0.0116,0.0073,0.0073,0.0073,0.0074,0.0074,0.0632,0.0681,0.0766,0.0879,0.0993,0.116,0.1269,0.14,0.1543,0.166,0.1632,0.1565,0.1269,0.0766,0.0452,0.0138,0.0157,0.003,0.0034,0.0037,0.0073,0.0072,-0.0008,-0.0008,-0.0008,-0.0008,-0.0008,0,0.0652,0.0726,0.0832,0.0982,0.1129,0.1189,0.1399,0.1501,0.1655,0.171,0.1732,0.1412,0.1096,0.0764,0.0294,0.0015,-0.0017,-0.0078,-0.0055,-0.0048,-0.0041,-0.0008,-0.0112,-0.0113,-0.0114,-0.0115,0,0,0.0665,0.0767,0.0837,0.1066,0.1192,0.1393,0.1518,0.1644,0.1721,0.1727,0.1667,0.1572,0.1181,0.0817,0.0435,0.0171,0.0124,0.0107,0.0219,0.0299,0.0308,0.0046,0.011,0,0,0,0,0]}],[{"header":{"parameterUnit":"m.s-1","parameterCategory":2,"la1":30.2991,"la2":30.254,"lo1":-89.0895,"lo2":-89.0444,"dy":0.0017,"dx":0.0017,"nx":28,"ny":28,"refTime":"2025-05-20T09:00:00:Z","depth":"4","parameterNumber":2,"parameterNumberName":"U-component_of_CURRENTS"},"data":[0,0,0,0,0,0,0,0,0,0,0,0,0,0,0,0,0,0,0,0,0,0,0,0,0,0,0,0,0,0,0,0,0,0,0,0,0,0,0,0,0,0,0,0,0,0,0,0,0,0,0,0,0,0,0,0,0,0,0.1155,0.1156,0,0.1178,0.1178,0.1179,0.1211,0.1212,0.1212,0.1213,0.1267,0.1268,0.1269,0,0,0,0,0,0,0,0,0,0,0,0,0,0.0975,0.098,0.1155,0.1156,0.1156,0.1178,0.1178,0.1179,0.1211,0.1212,0.1213,0.1213,0.1267,0.1268,0.1269,0,0,0,0,0,0,0,0,0,0,0,0,0,0.1032,0.0981,0.1155,0.1175,0.1177,0.1178,0.1178,0.1179,0.1211,0.1212,0.1213,0.1214,0.1267,0.1268,0.1269,0.126,0,0,0.1273,0.1274,0,0,0,0,0,0,0,0,0.1029,0.1038,0.1172,0.1174,0.1176,0.1193,0.1135,0.1208,0.1211,0.1198,0.1213,0.1214,0.1245,0.1248,0.125,0.1263,0.1265,0.1274,0.1274,0.1275,0.1275,0,0,0,0,0,0,0,0.1025,0.1036,0.1164,0.1172,0.1174,0.1126,0.1137,0.1148,0.1217,0.1199,0.1202,0.1204,0.1246,0.1248,0.1251,0.1266,0.1274,0.1275,0.1276,0.1276,0.1344,0.1345,0,0,0,0,0,0,0.1031,0.1034,0.1163,0.1165,0.1103,0.1129,0.1141,0.1186,0.1216,0.1221,0.1203,0.1206,0.1245,0.125,0.1253,0.1346,0.1275,0.1276,0.1277,0.1343,0.1344,0.1346,0,0,0,0,0,0,0.1028,0.1044,0.1162,0.1096,0.1109,0.1133,0.1182,0.1186,0.1225,0.1219,0.1225,0.1242,0.1246,0.1251,0.1314,0.1344,0.1277,0.1278,0.1342,0.1344,0.1345,0.1465,0,0,0,0,0,0,0.1023,0.1044,0.1096,0.1099,0.1113,0.1166,0.1182,0.1186,0.1223,0.1227,0.1253,0.1257,0.1247,0.1313,0.1316,0.1345,0.1279,0.1341,0.1343,0.1345,0.146,0.1471,0.148,0,0,0,0,0,0.1017,0.1042,0.1099,0.1115,0.118,0.1165,0.1168,0.1185,0.1225,0.1228,0.1282,0.1258,0.1325,0.1316,0.1319,0.1349,0.134,0.1342,0.1344,0.1455,0.1468,0.1479,0,0,0,0,0,0,0.0933,0.1049,0.111,0.116,0.1179,0.1171,0.1174,0.1209,0.1253,0.1284,0.1292,0.1299,0.1352,0.1336,0.1326,0.1369,0.1319,0.1322,0.1402,0.1415,0.1424,0.1413,0.128,0,0,0,0,0,0.0961,0.1051,0.1101,0.114,0.1156,0.1188,0.1197,0.1224,0.1252,0.1274,0.13,0.133,0.1354,0.1379,0.1381,0.1426,0.1428,0.1437,0.1447,0.1456,0.1446,0.1487,0.1501,0.1353,0.1353,0.1353,0,0,0.0893,0.101,0.1027,0.1136,0.1156,0.1134,0.1194,0.1216,0.1219,0.1273,0.1306,0.1367,0.1372,0.1417,0.1438,0.1419,0.1508,0.1459,0.1467,0.1452,0.1491,0.1506,0.1519,0.1354,0.1354,0.1354,0,0,0.081,0.0955,0.0985,0.1007,0.1093,0.1128,0.1146,0.1188,0.1239,0.1304,0.1338,0.1433,0.1459,0.1482,0.1494,0.1558,0.1553,0.1557,0.1613,0.1655,0.1668,0.1679,0.1746,0.1762,0.157,0.1571,0.1571,0,0.0755,0.0832,0.0966,0.0978,0.1006,0.1121,0.1103,0.1138,0.1203,0.1301,0.1321,0.1471,0.1479,0.1559,0.1583,0.158,0.1617,0.1578,0.1671,0.1682,0.1691,0.1756,0.1772,0.1577,0.1576,0.1575,0.1575,0,0.0663,0.0723,0.0724,0.0831,0.0863,0.0879,0.0954,0.1045,0.1177,0.1258,0.1426,0.1488,0.1593,0.1607,0.1619,0.1703,0.1715,0.1678,0.1648,0.1714,0.1778,0.1793,0.1585,0.1583,0.1581,0.158,0,0,0.0554,0.0663,0.0662,0.0712,0.0824,0.0842,0.0909,0.1054,0.1181,0.129,0.1424,0.1533,0.1665,0.1683,0.1734,0.1778,0.1895,0.1773,0.1773,0.1853,0.203,0.1818,0.1814,0.1895,0.1897,0.1899,0.2065,0,0.0471,0.0499,0.0585,0.0576,0.0593,0.0755,0.0828,0.0981,0.1171,0.1314,0.1468,0.1614,0.1655,0.1777,0.1817,0.1884,0.1933,0.1855,0.1939,0.1942,0.1756,0.1821,0.1905,0.2076,0.2079,0.2082,0.2084,0,0.0362,0.0438,0.0449,0.0587,0.0615,0.0653,0.0932,0.1007,0.1249,0.1407,0.1603,0.1719,0.1864,0.1842,0.2016,0.1982,0.2006,0.2034,0.204,0.1798,0.1754,0.1982,0.211,0.2108,0.2106,0.2104,0.2102,0,0.0331,0.0338,0.0409,0.0422,0.0575,0.0697,0.0829,0.1095,0.1247,0.1499,0.1652,0.183,0.1957,0.2022,0.2099,0.2101,0.2205,0.2211,0.2043,0.2032,0.2124,0.2109,0.2265,0.2265,0.2265,0.2264,0.2264,0,0.0303,0.0316,0.0401,0.0472,0.056,0.0693,0.0913,0.109,0.1345,0.152,0.1717,0.1845,0.201,0.2089,0.2117,0.2119,0.2241,0.2056,0.2048,0.2176,0.2165,0.2138,0.2121,0.227,0.2269,0.2268,0.2267,0,0.0274,0.0329,0.0366,0.0526,0.0578,0.0653,0.0924,0.1075,0.1367,0.1576,0.167,0.1911,0.2057,0.2142,0.224,0.2162,0.2166,0.2104,0.2252,0.2249,0.1985,0.1972,0.2023,0.2017,0.2011,0.2007,0.2003,0,0.0274,0.0301,0.0401,0.0409,0.0503,0.0637,0.0766,0.106,0.1234,0.1596,0.1665,0.1889,0.201,0.201,0.2072,0.211,0.2048,0.2056,0.2008,0.1967,0.1956,0.1952,0.1946,0.1995,0.1993,0.1992,0.199,0,0.0253,0.0294,0.0346,0.0383,0.0461,0.0531,0.0757,0.0878,0.1227,0.1456,0.1674,0.1765,0.1858,0.192,0.1921,0.1926,0.2069,0.2,0.2013,0.1969,0.1933,0.1926,0.1927,0.1972,0.1974,0.1976,0.1977,0,0.0183,0.0168,0.0258,0.0263,0.035,0.0456,0.0561,0.0782,0.0988,0.1439,0.146,0.1662,0.1839,0.1818,0.1809,0.1804,0.1812,0.1763,0.1789,0.181,0.1645,0.1562,0.1484,0,0,0,0,0,0.0122,0.0146,0.0131,0.0185,0.03,0.0387,0.0573,0.0699,0.1027,0.115,0.1349,0.1442,0.1528,0.1591,0.1549,0.1661,0.1762,0.1596,0.1704,0.1868,0.1889,0.1704,0,0,0,0,0,0,0.0056,0.0107,0.0098,0.0161,0.0232,0.0365,0.0481,0.0659,0.0776,0.1089,0.1136,0.1358,0.1432,0.1571,0.1539,0.1554,0.1584,0.172,0.1715,0.1855,0.1875,0.1892,0.1709,0,0,0,0,0]},{"header":{"parameterUnit":"m.s-1","parameterCategory":2,"la1":30.2991,"la2":30.254,"lo1":-89.0895,"lo2":-89.0444,"dy":0.0017,"dx":0.0017,"nx":28,"ny":28,"refTime":"2025-05-20T09:00:00:Z","depth":"4","parameterNumber":3,"parameterNumberName":"V-component_of_CURRENTS"},"data":[0,0,0,0,0,0,0,0,0,0,0,0,0,0,0,0,0,0,0,0,0,0,0,0,0,0,0,0,0,0,0,0,0,0,0,0,0,0,0,0,0,0,0,0,0,0,0,0,0,0,0,0,0,0,0,0,0,0,0.009,0.009,0,0.0048,0.0047,0.0047,0.0025,0.0025,0.0026,0.0026,0.0002,0.0002,0.0001,0,0,0,0,0,0,0,0,0,0,0,0,0,0.0062,0.0063,0.009,0.009,0.0089,0.0048,0.0047,0.0047,0.0025,0.0025,0.0026,0.0026,0.0003,0.0002,0.0001,0,0,0,0,0,0,0,0,0,0,0,0,0,0.0052,0.0063,0.009,0.0074,0.0072,0.0048,0.0047,0.0046,0.0025,0.0025,0.0026,0.0026,0.0003,0.0002,0.0001,-0.0006,0,0,-0.0002,-0.0002,0,0,0,0,0,0,0,0,0.0053,0.0053,0.0077,0.0075,0.0073,0.0043,0.0029,0.003,0.0025,0.0042,0.0026,0.0026,0.0018,0.0016,0.0007,-0.0007,-0.0008,-0.0002,-0.0003,-0.0003,-0.0003,0,0,0,0,0,0,0,0.0054,0.0054,0.0073,0.0076,0.0074,0.0038,0.0037,0.0028,0.003,0.0041,0.0039,0.0036,0.0017,0.0007,0.0006,-0.0009,-0.0002,-0.0003,-0.0004,-0.0004,-0.0061,-0.0062,0,0,0,0,0,0,0.0065,0.0056,0.0074,0.0071,0.0063,0.0039,0.0038,0.0052,0.003,0.0027,0.0036,0.0035,0.0009,0.0007,0.0005,0.0008,-0.0003,-0.0004,-0.0005,-0.006,-0.0061,-0.0062,0,0,0,0,0,0,0.0065,0.0068,0.0076,0.0062,0.006,0.004,0.0055,0.0051,0.0042,0.0026,0.0023,0.0032,0.0009,0.0006,-0.0003,0.0006,-0.0004,-0.0005,-0.0059,-0.006,-0.0062,0.0006,0,0,0,0,0,0,0.0065,0.0068,0.0077,0.0063,0.0062,0.0071,0.0055,0.005,0.004,0.0039,0.0021,0.0019,0.0009,-0.0002,-0.0004,0.0005,-0.0006,-0.0058,-0.006,-0.0061,0.0005,0.0007,0.0008,0,0,0,0,0,0.0064,0.009,0.0078,0.0079,0.0076,0.0072,0.0068,0.0051,0.004,0.0042,0.0024,0.002,-0.0015,-0.0003,-0.0006,0.0004,-0.0057,-0.0059,-0.0061,0.0004,0.0006,0.0008,0,0,0,0,0,0,0.0105,0.009,0.0076,0.0102,0.0087,0.0069,0.0072,0.0053,0.0039,0.004,0.0018,0.0014,0.0007,-0.0013,0.0001,-0.0025,-0.0041,-0.0044,0.0009,0.0011,0.0013,0.0019,-0.0007,0,0,0,0,0,0.0111,0.0106,0.0098,0.0111,0.0113,0.0088,0.0081,0.0071,0.0058,0.0051,0.0033,0.001,-0.0006,-0.001,-0.0029,-0.0034,-0.0054,-0.0038,-0.0036,-0.0034,-0.0035,-0.0065,-0.0065,-0.0069,-0.0069,-0.0069,0,0,0.0148,0.0116,0.0131,0.0114,0.0104,0.0127,0.0085,0.0087,0.0096,0.0052,0.0056,0.0021,-0.0009,-0.0015,-0.0022,-0.0027,-0.0041,-0.0037,-0.0034,-0.0037,-0.0067,-0.0066,-0.0066,-0.007,-0.007,-0.007,0,0,0.019,0.0178,0.019,0.0181,0.0156,0.0148,0.0151,0.0134,0.0118,0.0106,0.0077,0.0045,0.0019,0.0002,-0.0011,-0.0014,-0.003,-0.0026,-0.0003,-0.0031,-0.003,-0.0029,-0.0032,-0.0033,-0.0023,-0.0023,-0.0022,0,0.0229,0.0237,0.0196,0.0199,0.0211,0.0166,0.0208,0.0185,0.016,0.014,0.0116,0.0049,0.0028,0.0016,0.001,-0.0005,-0.0021,0.0001,-0.0024,-0.0025,-0.0025,-0.0029,-0.003,-0.002,-0.002,-0.002,-0.0021,0,0.027,0.0291,0.0301,0.0292,0.0301,0.0322,0.0304,0.0289,0.0252,0.0214,0.0169,0.0117,0.0076,0.0059,0.0035,0.0017,0.0009,-0.0015,-0.0019,-0.002,-0.0025,-0.0027,-0.0015,-0.0016,-0.0017,-0.0018,0,0,0.0336,0.0335,0.0346,0.0355,0.0354,0.0365,0.0382,0.037,0.0365,0.0293,0.0269,0.0209,0.0148,0.0127,0.0085,0.005,0.0038,0.0016,0.0014,0.0033,-0.0008,-0.0033,-0.0038,0.001,0.001,0.0009,-0.0001,0,0.0385,0.0414,0.0415,0.0479,0.0501,0.0486,0.0513,0.0486,0.0431,0.0388,0.0289,0.0255,0.0186,0.0167,0.0115,0.0056,0.003,0.0043,-0.0029,-0.0031,-0.0037,-0.0043,0.0007,-0.0003,-0.0003,-0.0004,-0.0004,0,0.0424,0.0426,0.0509,0.0546,0.0567,0.0625,0.0637,0.0638,0.0564,0.0512,0.0426,0.0345,0.0277,0.0214,0.0111,0.0123,0.0061,0.0008,0.0006,-0.0046,-0.0062,-0.0012,-0.0009,-0.0008,-0.0008,-0.0008,-0.0007,0,0.0436,0.0496,0.0561,0.0577,0.0626,0.0681,0.0709,0.0683,0.0673,0.0586,0.0555,0.0443,0.0396,0.0288,0.0148,0.0141,0.0027,0.0012,-0.0065,-0.0066,-0.0067,-0.0068,-0.0059,-0.0059,-0.0059,-0.0059,-0.0059,0,0.0458,0.0506,0.0586,0.0616,0.0714,0.073,0.0805,0.0793,0.0766,0.074,0.0625,0.0571,0.0408,0.0303,0.0179,0.0043,0.0055,-0.0062,-0.0078,-0.0037,-0.0035,-0.0067,-0.0068,-0.0059,-0.0059,-0.0059,-0.0059,0,0.0455,0.0505,0.0567,0.0665,0.0726,0.0781,0.0889,0.0905,0.0883,0.0844,0.0822,0.0683,0.055,0.0386,0.0218,0.0105,-0.0029,-0.0079,-0.0007,-0.0019,-0.0101,-0.0099,-0.0139,-0.0141,-0.0142,-0.0142,-0.0143,0,0.0463,0.0494,0.0616,0.0688,0.076,0.0861,0.0942,0.0961,0.0948,0.0891,0.0852,0.0746,0.0627,0.0388,0.0211,0.0002,-0.0045,-0.0096,-0.0123,-0.0102,-0.0113,-0.0109,-0.0105,-0.0145,-0.0145,-0.0145,-0.0145,0,0.0462,0.0508,0.055,0.0704,0.0824,0.0911,0.1,0.0999,0.0978,0.0986,0.0874,0.0735,0.0583,0.0379,0.0219,0.0054,-0.0057,-0.0107,-0.0106,-0.0131,-0.0109,-0.0118,-0.0113,-0.0149,-0.0148,-0.0148,-0.0148,0,0.0465,0.0481,0.0567,0.0697,0.0848,0.0926,0.0957,0.0969,0.0971,0.0906,0.0873,0.0715,0.0641,0.0405,0.024,0.0091,0.0052,-0.0002,-0.0007,-0.0005,0.0015,0.0062,0.0062,0,0,0,0,0,0.0449,0.0473,0.0579,0.0697,0.0846,0.093,0.0996,0.0991,0.0987,0.092,0.0895,0.0748,0.0514,0.0406,0.0256,0.0202,0.001,0.0018,-0.0058,-0.0167,-0.0163,-0.0168,0,0,0,0,0,0,0.0431,0.0505,0.0543,0.0703,0.0795,0.0923,0.0953,0.0925,0.0869,0.0863,0.0741,0.0722,0.0492,0.0621,0.0264,0.0218,0.0146,-0.0073,-0.0076,-0.0169,-0.0166,-0.0163,-0.0167,0,0,0,0,0]}]]